BMCB-29 Weather Reports


time (UTC)temp
C
wind
direction
speed
KPH
gust
KPH
rain 1hr
cm
rain 24hr
cm
rain mn
cm
humidity
%
barometer
mb
20260503071044 14 0 0.0 0.0 0.00 0.00 0.00 92 1014.2
20260503055040 11 0 0.0 0.0 0.00 0.00 0.00 10 1014.1
20260503054039 11 0 0.0 0.0 0.00 0.00 0.00 10 1014.2
20260503052042 11 0 0.0 0.0 0.00 0.00 0.00 10 1014.3
20260503051041 10 0 0.0 0.0 0.00 0.00 0.00 10 1014.3
20260503050042 10 0 0.0 0.0 0.00 0.00 0.00 10 1014.4
20260503045041 10 0 0.0 0.0 0.00 0.00 0.00 10 1014.5
20260503044044 11 0 0.0 0.0 0.00 0.00 0.00 10 1014.5
20260503043043 10 0 0.0 0.0 0.00 0.00 0.00 10 1014.5
20260503042041 10 0 0.0 0.0 0.00 0.00 0.00 10 1014.4
20260503040043 10 0 0.0 0.0 0.00 0.00 0.00 99 1014.5
20260503035043 11 0 0.0 0.0 0.00 0.00 0.00 99 1014.6
20260503034044 11 0 0.0 0.0 0.00 0.00 0.00 99 1014.6
20260503033042 11 0 0.0 0.0 0.00 0.00 0.00 99 1014.7
20260503031043 11 0 0.0 0.0 0.00 0.05 0.00 99 1014.7
20260503030042 10 0 0.0 0.0 0.00 0.05 0.00 98 1014.7
20260503025042 11 0 0.0 0.0 0.00 0.05 0.00 98 1014.7
20260503024042 11 0 0.0 0.0 0.00 0.05 0.00 99 1014.7
20260503023042 11 0 0.0 0.0 0.00 0.05 0.00 98 1014.8
20260503021041 11 0 0.0 0.0 0.00 0.05 0.00 98 1014.9
20260503020041 11 0 0.0 0.0 0.00 0.05 0.00 98 1015.0
20260503015042 11 0 0.0 0.0 0.00 0.05 0.00 98 1015.1
20260503013043 11 0 0.0 0.0 0.00 0.05 0.00 98 1015.2
20260503012043 11 0 0.0 0.0 0.00 0.05 0.00 98 1015.3
20260503011044 11 0 0.0 0.0 0.00 0.05 0.00 98 1015.4
20260503010043 11 0 0.0 0.0 0.00 0.05 0.00 96 1015.5
20260503004043 12 0 0.0 0.0 0.00 0.05 0.00 97 1015.6
20260503003043 12 0 0.0 0.0 0.00 0.05 0.00 96 1015.7
20260503002045 12 0 0.0 0.0 0.00 0.05 0.00 96 1015.8
20260503000046 12 0 0.0 0.0 0.00 0.05 0.00 95 1015.8
20260502235046 12 0 0.0 0.0 0.00 0.05 0.00 94 1015.9
20260502233045 13 0 0.0 0.0 0.00 0.05 0.00 92 1015.9
20260502231045 13 0 0.0 0.0 0.00 0.05 0.00 92 1015.8
20260502230043 13 0 0.0 0.0 0.00 0.05 0.00 92 1015.9
20260502224045 13 0 0.0 0.0 0.00 0.05 0.00 92 1015.8
20260502223045 13 0 0.0 0.0 0.00 0.05 0.00 91 1015.8
20260502222046 13 0 0.0 0.0 0.00 0.05 0.00 91 1015.8
20260502221047 14 0 0.0 0.0 0.00 0.05 0.00 89 1015.9
20260502214048 14 0 0.0 0.0 0.00 0.05 0.05 90 1016.0
20260502213049 14 0 0.0 0.0 0.00 0.05 0.05 89 1016.0
20260502212049 15 0 0.0 0.0 0.00 0.05 0.05 88 1016.0
20260502211046 15 0 0.0 0.0 0.00 0.05 0.05 88 1016.0
20260502205047 15 0 0.0 0.0 0.00 0.05 0.05 88 1016.1
20260502204048 15 0 0.0 0.0 0.00 0.05 0.05 86 1016.1
20260502203050 16 0 0.0 0.0 0.00 0.05 0.05 84 1016.1
20260502202051 16 0 0.0 0.0 0.00 0.05 0.05 84 1016.2
20260502200045 16 0 0.0 0.0 0.00 0.05 0.05 81 1016.2
20260502195046 17 0 0.0 0.0 0.00 0.05 0.05 78 1016.1
20260502194043 17 0 0.0 0.0 0.00 0.05 0.05 74 1016.0
20260502193045 18 0 0.0 0.0 0.00 0.05 0.05 73 1015.9
20260502192049 18 0 0.0 0.0 0.00 0.05 0.05 73 1015.9
20260502191049 18 0 0.0 0.0 0.00 0.05 0.05 74 1015.9
20260502185047 17 0 0.0 0.0 0.00 0.05 0.05 75 1015.9
20260502184046 18 0 0.0 0.0 0.00 0.05 0.05 75 1015.9
20260502183048 18 0 0.0 0.0 0.00 0.05 0.05 75 1015.8
20260502182043 18 0 0.0 0.0 0.00 0.05 0.05 76 1015.8
20260502181046 20 0 0.0 0.0 0.00 0.05 0.05 72 1015.6
20260502164045 21 0 0.0 0.0 0.00 0.05 0.05 62 1015.9
20260502163047 22 0 0.0 0.0 0.00 0.05 0.05 58 1016.0
20260502162044 22 0 0.0 0.0 0.00 0.05 0.05 56 1016.2
20260502161049 22 0 0.0 0.0 0.00 0.05 0.05 55 1016.2
20260502151046 24 0 0.0 0.0 0.00 0.05 0.05 50 1016.6
20260502122044 23 0 0.0 0.0 0.00 0.05 0.05 56 1019.2
20260502121043 23 0 0.0 0.0 0.00 0.05 0.05 56 1019.4
20260502115042 22 0 0.0 0.0 0.00 0.05 0.05 59 1019.8
20260502113043 22 0 0.0 0.0 0.00 0.05 0.05 60 1020.0
20260502112046 22 0 0.0 0.0 0.00 0.05 0.05 62 1020.3
20260502111046 21 0 0.0 0.0 0.00 0.05 0.05 64 1020.3
20260502110042 21 0 0.0 0.0 0.00 0.05 0.05 63 1020.4
20260502105048 21 0 0.0 0.0 0.00 0.05 0.05 63 1020.5
20260502104044 21 0 0.0 0.0 0.00 0.05 0.05 65 1020.6
20260502101044 21 0 0.0 0.0 0.00 0.05 0.05 68 1020.8
20260502091046 20 0 0.0 0.0 0.00 0.05 0.05 71 1021.2